Time,TemperatureF,DewpointF,PressureIn,WindDirection,WindDirectionDegrees,WindSpeedMPH,WindSpeedGustMPH,Humidity,HourlyPrecipIn,Conditions,Clouds,dailyrainin,SoftwareType,DateUTC
2013-04-03 00:00:00,20.3,14.5,30.37,NNE,17,0.0,0.0,78,0.00,,,0.00,Wunderground v.1.15,2013-04-03 05:00:00,
2013-04-03 00:10:00,19.9,14.4,30.37,NNE,17,0.0,0.0,79,0.00,,,0.00,Wunderground v.1.15,2013-04-03 05:10:00,
2013-04-03 00:15:00,19.7,14.2,30.37,NNE,17,0.0,0.0,79,0.00,,,0.00,Wunderground v.1.15,2013-04-03 05:15:00,
2013-04-03 00:20:00,19.5,14.0,30.37,NNE,17,0.0,0.0,79,0.00,,,0.00,Wunderground v.1.15,2013-04-03 05:20:00,
2013-04-03 00:25:00,20.0,14.8,30.37,NNE,17,0.0,0.0,80,0.00,,,0.00,Wunderground v.1.15,2013-04-03 05:25:00,
2013-04-03 00:30:00,20.2,15.0,30.37,NNE,17,0.0,0.0,80,0.00,,,0.00,Wunderground v.1.15,2013-04-03 05:30:00,
2013-04-03 00:40:00,19.9,14.4,30.37,NNE,17,0.0,0.0,79,0.00,,,0.00,Wunderground v.1.15,2013-04-03 05:40:00,
2013-04-03 00:45:00,19.7,14.2,30.37,NNE,17,0.0,0.0,79,0.00,,,0.00,Wunderground v.1.15,2013-04-03 05:45:00,
2013-04-03 00:50:00,19.7,14.5,30.37,NNE,17,0.0,0.0,80,0.00,,,0.00,Wunderground v.1.15,2013-04-03 05:50:00,
2013-04-03 01:00:00,19.4,14.2,30.37,NNE,17,0.0,0.0,80,0.00,,,0.00,Wunderground v.1.15,2013-04-03 06:00:00,
2013-04-03 01:10:00,19.2,14.0,30.37,NNE,17,0.0,0.0,80,0.00,,,0.00,Wunderground v.1.15,2013-04-03 06:10:00,
2013-04-03 01:15:00,19.2,14.0,30.37,NNE,17,0.0,0.0,80,0.00,,,0.00,Wunderground v.1.15,2013-04-03 06:15:00,
2013-04-03 01:25:00,19.1,14.2,30.37,NNE,17,0.0,0.0,81,0.00,,,0.00,Wunderground v.1.15,2013-04-03 06:25:00,
2013-04-03 01:30:00,19.1,14.2,30.37,NNE,17,0.0,0.0,81,0.00,,,0.00,Wunderground v.1.15,2013-04-03 06:30:00,
2013-04-03 01:35:00,19.1,14.2,30.37,NNE,17,0.0,0.0,81,0.00,,,0.00,Wunderground v.1.15,2013-04-03 06:35:00,
2013-04-03 01:40:00,19.4,14.5,30.37,NNE,17,0.0,0.0,81,0.00,,,0.00,Wunderground v.1.15,2013-04-03 06:40:00,
2013-04-03 01:45:00,19.5,14.6,30.36,NNE,17,0.0,0.0,81,0.00,,,0.00,Wunderground v.1.15,2013-04-03 06:45:00,
2013-04-03 01:50:00,19.7,14.5,30.36,NNE,17,0.0,0.0,80,0.00,,,0.00,Wunderground v.1.15,2013-04-03 06:50:00,
2013-04-03 01:55:00,19.5,14.3,30.36,NNE,17,0.0,0.0,80,0.00,,,0.00,Wunderground v.1.15,2013-04-03 06:55:00,
2013-04-03 02:00:00,19.2,14.0,30.37,NNE,17,0.0,0.0,80,0.00,,,0.00,Wunderground v.1.15,2013-04-03 07:00:00,
2013-04-03 02:10:00,19.2,14.0,30.37,NNE,17,0.0,0.0,80,0.00,,,0.00,Wunderground v.1.15,2013-04-03 07:10:00,
2013-04-03 02:20:00,19.4,14.2,30.37,NNE,17,0.0,0.0,80,0.00,,,0.00,Wunderground v.1.15,2013-04-03 07:20:00,
2013-04-03 02:25:00,19.7,14.8,30.37,NNE,17,0.0,0.0,81,0.00,,,0.00,Wunderground v.1.15,2013-04-03 07:25:00,
2013-04-03 02:30:00,20.2,15.0,30.36,NNE,17,0.0,0.0,80,0.00,,,0.00,Wunderground v.1.15,2013-04-03 07:30:00,
2013-04-03 02:35:00,20.5,15.3,30.36,NNE,17,0.0,1.0,80,0.00,,,0.00,Wunderground v.1.15,2013-04-03 07:35:00,
2013-04-03 02:40:00,20.5,15.3,30.36,NNE,17,0.0,1.0,80,0.00,,,0.00,Wunderground v.1.15,2013-04-03 07:40:00,
2013-04-03 02:45:00,20.5,15.0,30.35,NNE,17,0.0,1.0,79,0.00,,,0.00,Wunderground v.1.15,2013-04-03 07:45:00,
2013-04-03 02:50:00,20.2,14.7,30.35,NNE,17,0.0,0.0,79,0.00,,,0.00,Wunderground v.1.15,2013-04-03 07:50:00,
2013-04-03 03:00:00,19.1,13.7,30.35,NNE,17,0.0,0.0,79,0.00,,,0.00,Wunderground v.1.15,2013-04-03 08:00:00,
2013-04-03 03:10:00,18.3,13.2,30.35,NNE,17,0.0,0.0,80,0.00,,,0.00,Wunderground v.1.15,2013-04-03 08:10:00,
2013-04-03 03:15:00,18.0,12.9,30.35,NNE,17,0.0,0.0,80,0.00,,,0.00,Wunderground v.1.15,2013-04-03 08:15:00,
2013-04-03 03:25:00,17.3,12.5,30.35,NNE,17,0.0,0.0,81,0.00,,,0.00,Wunderground v.1.15,2013-04-03 08:25:00,
2013-04-03 03:30:00,17.2,12.6,30.35,NNE,17,0.0,0.0,82,0.00,,,0.00,Wunderground v.1.15,2013-04-03 08:30:00,
2013-04-03 03:35:00,17.0,12.5,30.35,NNE,17,0.0,0.0,82,0.00,,,0.00,Wunderground v.1.15,2013-04-03 08:35:00,
2013-04-03 03:45:00,17.2,12.9,30.35,NNE,17,0.0,0.0,83,0.00,,,0.00,Wunderground v.1.15,2013-04-03 08:45:00,
2013-04-03 03:50:00,16.9,12.6,30.35,NNE,17,0.0,0.0,83,0.00,,,0.00,Wunderground v.1.15,2013-04-03 08:50:00,
2013-04-03 03:55:00,16.9,12.6,30.35,NNE,17,0.0,0.0,83,0.00,,,0.00,Wunderground v.1.15,2013-04-03 08:55:00,
2013-04-03 04:00:00,16.9,12.6,30.34,NNE,17,0.0,0.0,83,0.00,,,0.00,Wunderground v.1.15,2013-04-03 09:00:00,
2013-04-03 04:10:00,17.8,13.8,30.34,NNE,24,0.0,0.0,84,0.00,,,0.00,Wunderground v.1.15,2013-04-03 09:10:00,
2013-04-03 04:15:00,18.9,14.9,30.34,NNE,25,0.0,0.0,84,0.00,,,0.00,Wunderground v.1.15,2013-04-03 09:15:00,
2013-04-03 04:20:00,19.4,15.1,30.34,NNE,25,0.0,2.0,83,0.00,,,0.00,Wunderground v.1.15,2013-04-03 09:20:00,
2013-04-03 04:25:00,18.6,14.0,30.34,NNE,25,0.0,2.0,82,0.00,,,0.00,Wunderground v.1.15,2013-04-03 09:25:00,
2013-04-03 04:30:00,17.8,13.2,30.34,NNE,25,0.0,2.0,82,0.00,,,0.00,Wunderground v.1.15,2013-04-03 09:30:00,
2013-04-03 04:35:00,17.7,13.4,30.34,NNE,25,0.0,2.0,83,0.00,,,0.00,Wunderground v.1.15,2013-04-03 09:35:00,
2013-04-03 04:40:00,17.7,13.4,30.34,NNE,25,0.0,2.0,83,0.00,,,0.00,Wunderground v.1.15,2013-04-03 09:40:00,
2013-04-03 04:45:00,17.7,13.4,30.34,NNE,25,0.0,2.0,83,0.00,,,0.00,Wunderground v.1.15,2013-04-03 09:45:00,
2013-04-03 04:50:00,17.8,13.5,30.34,NNE,25,0.0,0.0,83,0.00,,,0.00,Wunderground v.1.15,2013-04-03 09:50:00,
2013-04-03 04:55:00,17.7,13.4,30.34,NNE,25,0.0,0.0,83,0.00,,,0.00,Wunderground v.1.15,2013-04-03 09:55:00,
2013-04-03 05:05:00,18.1,14.1,30.35,NNE,25,0.0,0.0,84,0.00,,,0.00,Wunderground v.1.15,2013-04-03 10:05:00,
2013-04-03 05:10:00,18.3,14.3,30.35,NNE,25,0.0,0.0,84,0.00,,,0.00,Wunderground v.1.15,2013-04-03 10:10:00,
2013-04-03 05:15:00,18.4,14.4,30.35,NNE,25,0.0,0.0,84,0.00,,,0.00,Wunderground v.1.15,2013-04-03 10:15:00,
2013-04-03 05:25:00,18.6,14.6,30.35,East,79,0.0,0.0,84,0.00,,,0.00,Wunderground v.1.15,2013-04-03 10:25:00,
2013-04-03 05:30:00,18.6,14.6,30.34,East,79,0.0,0.0,84,0.00,,,0.00,Wunderground v.1.15,2013-04-03 10:30:00,
2013-04-03 05:35:00,18.9,14.9,30.34,East,79,0.0,2.0,84,0.00,,,0.00,Wunderground v.1.15,2013-04-03 10:35:00,
2013-04-03 05:40:00,19.2,15.2,30.34,East,99,0.0,2.0,84,0.00,,,0.00,Wunderground v.1.15,2013-04-03 10:40:00,
2013-04-03 05:45:00,19.4,15.4,30.34,East,99,1.0,2.0,84,0.00,,,0.00,Wunderground v.1.15,2013-04-03 10:45:00,
2013-04-03 05:55:00,19.5,15.2,30.34,ESE,106,1.0,4.0,83,0.00,,,0.00,Wunderground v.1.15,2013-04-03 10:55:00,
2013-04-03 06:00:00,19.9,15.6,30.34,ESE,112,1.0,4.0,83,0.00,,,0.00,Wunderground v.1.15,2013-04-03 11:00:00,
2013-04-03 06:10:00,20.2,15.9,30.34,SSE,152,2.0,4.0,83,0.00,,,0.00,Wunderground v.1.15,2013-04-03 11:10:00,
2013-04-03 06:15:00,20.3,15.7,30.34,SSE,162,2.0,4.0,82,0.00,,,0.00,Wunderground v.1.15,2013-04-03 11:15:00,
2013-04-03 06:20:00,20.3,15.4,30.34,SSE,162,3.0,3.0,81,0.00,,,0.00,Wunderground v.1.15,2013-04-03 11:20:00,
2013-04-03 06:30:00,20.8,15.6,30.34,SSE,154,3.0,3.0,80,0.00,,,0.00,Wunderground v.1.15,2013-04-03 11:30:00,
2013-04-03 06:35:00,21.0,15.5,30.34,SSE,161,3.0,4.0,79,0.00,,,0.00,Wunderground v.1.15,2013-04-03 11:35:00,
2013-04-03 06:40:00,21.1,15.0,30.34,SSE,157,3.0,3.0,77,0.00,,,0.00,Wunderground v.1.15,2013-04-03 11:40:00,
2013-04-03 06:45:00,21.1,15.0,30.33,SSE,157,3.0,4.0,77,0.00,,,0.00,Wunderground v.1.15,2013-04-03 11:45:00,
2013-04-03 06:55:00,21.3,14.6,30.33,SSE,158,2.0,8.0,75,0.00,,,0.00,Wunderground v.1.15,2013-04-03 11:55:00,
2013-04-03 07:00:00,21.3,14.6,30.34,SSE,160,2.0,8.0,75,0.00,,,0.00,Wunderground v.1.15,2013-04-03 12:00:00,
2013-04-03 07:05:00,21.3,14.3,30.34,SSE,157,2.0,8.0,74,0.00,,,0.00,Wunderground v.1.15,2013-04-03 12:05:00,
2013-04-03 07:10:00,21.3,14.3,30.34,SSE,162,2.0,7.0,74,0.00,,,0.00,Wunderground v.1.15,2013-04-03 12:10:00,
2013-04-03 07:15:00,21.3,14.3,30.34,SSE,162,3.0,7.0,74,0.00,,,0.00,Wunderground v.1.15,2013-04-03 12:15:00,
2013-04-03 07:20:00,21.6,14.3,30.34,SSE,160,3.0,3.0,73,0.00,,,0.00,Wunderground v.1.15,2013-04-03 12:20:00,
2013-04-03 07:25:00,21.9,14.3,30.34,SSE,152,3.0,8.0,72,0.00,,,0.00,Wunderground v.1.15,2013-04-03 12:25:00,
2013-04-03 07:30:00,22.1,14.4,30.34,SSE,152,2.0,8.0,72,0.00,,,0.00,Wunderground v.1.15,2013-04-03 12:30:00,
2013-04-03 07:35:00,22.2,14.2,30.34,SSE,160,3.0,8.0,71,0.00,,,0.00,Wunderground v.1.15,2013-04-03 12:35:00,
2013-04-03 07:40:00,22.5,14.5,30.34,SE,140,4.0,8.0,71,0.00,,,0.00,Wunderground v.1.15,2013-04-03 12:40:00,
2013-04-03 07:50:00,22.9,14.6,30.34,SSE,164,4.0,9.0,70,0.00,,,0.00,Wunderground v.1.15,2013-04-03 12:50:00,
2013-04-03 07:55:00,23.2,14.9,30.34,SSE,164,5.0,9.0,70,0.00,,,0.00,Wunderground v.1.15,2013-04-03 12:55:00,
2013-04-03 08:00:00,23.3,14.6,30.34,SSE,167,5.0,9.0,69,0.00,,,0.00,Wunderground v.1.15,2013-04-03 13:00:00,
2013-04-03 08:10:00,23.9,15.2,30.34,South,179,6.0,6.0,69,0.00,,,0.00,Wunderground v.1.15,2013-04-03 13:10:00,
2013-04-03 08:15:00,24.2,15.5,30.34,South,174,4.0,9.0,69,0.00,,,0.00,Wunderground v.1.15,2013-04-03 13:15:00,
2013-04-03 08:20:00,24.4,15.7,30.34,South,171,4.0,4.0,69,0.00,,,0.00,Wunderground v.1.15,2013-04-03 13:20:00,
2013-04-03 08:30:00,25.0,16.6,30.34,SSE,160,5.0,11.0,70,0.00,,,0.00,Wunderground v.1.15,2013-04-03 13:30:00,
2013-04-03 08:35:00,25.4,16.6,30.34,SSE,160,7.0,13.0,69,0.00,,,0.00,Wunderground v.1.15,2013-04-03 13:35:00,
2013-04-03 08:40:00,25.7,16.9,30.34,South,181,7.0,7.0,69,0.00,,,0.00,Wunderground v.1.15,2013-04-03 13:40:00,
2013-04-03 08:45:00,26.1,17.3,30.34,SSE,155,5.0,9.0,69,0.00,,,0.00,Wunderground v.1.15,2013-04-03 13:45:00,
2013-04-03 08:55:00,26.9,17.7,30.34,SSE,167,7.0,15.0,68,0.00,,,0.00,Wunderground v.1.15,2013-04-03 13:55:00,
2013-04-03 09:05:00,27.5,18.3,30.33,South,181,8.0,17.0,68,0.00,,,0.00,Wunderground v.1.15,2013-04-03 14:05:00,
2013-04-03 09:15:00,27.9,18.7,30.33,South,174,9.0,9.0,68,0.00,,,0.00,Wunderground v.1.15,2013-04-03 14:15:00,
2013-04-03 09:20:00,28.4,19.5,30.33,South,172,7.0,17.0,69,0.00,,,0.00,Wunderground v.1.15,2013-04-03 14:20:00,
2013-04-03 09:25:00,28.5,19.3,30.33,South,169,7.0,17.0,68,0.00,,,0.00,Wunderground v.1.15,2013-04-03 14:25:00,
2013-04-03 09:30:00,28.8,19.6,30.32,SSE,148,9.0,9.0,68,0.00,,,0.00,Wunderground v.1.15,2013-04-03 14:30:00,
2013-04-03 09:35:00,29.1,19.5,30.32,SSE,164,9.0,17.0,67,0.00,,,0.00,Wunderground v.1.15,2013-04-03 14:35:00,
2013-04-03 09:40:00,29.4,20.1,30.32,South,169,9.0,17.0,68,0.00,,,0.00,Wunderground v.1.15,2013-04-03 14:40:00,
2013-04-03 09:50:00,30.1,20.1,30.31,SSE,162,7.0,18.0,66,0.00,,,0.00,Wunderground v.1.15,2013-04-03 14:50:00,
2013-04-03 09:55:00,30.3,20.3,30.31,South,174,7.0,18.0,66,0.00,,,0.00,Wunderground v.1.15,2013-04-03 14:55:00,
2013-04-03 10:00:00,30.4,20.4,30.30,SSE,155,8.0,8.0,66,0.00,,,0.00,Wunderground v.1.15,2013-04-03 15:00:00,
2013-04-03 10:10:00,30.9,20.5,30.30,SSE,154,10.0,18.0,65,0.00,,,0.00,Wunderground v.1.15,2013-04-03 15:10:00,
2013-04-03 10:15:00,31.0,20.6,30.30,South,184,10.0,18.0,65,0.00,,,0.00,Wunderground v.1.15,2013-04-03 15:15:00,
2013-04-03 10:20:00,31.3,21.3,30.30,SSE,165,10.0,20.0,66,0.00,,,0.00,Wunderground v.1.15,2013-04-03 15:20:00,
2013-04-03 10:25:00,31.8,21.7,30.30,SSE,151,9.0,20.0,66,0.00,,,0.00,Wunderground v.1.15,2013-04-03 15:25:00,
2013-04-03 10:35:00,32.4,21.9,30.29,SSE,148,9.0,20.0,65,0.00,,,0.00,Wunderground v.1.15,2013-04-03 15:35:00,
2013-04-03 10:40:00,32.5,21.7,30.29,SSE,165,9.0,9.0,64,0.00,,,0.00,Wunderground v.1.15,2013-04-03 15:40:00,
2013-04-03 10:45:00,32.8,21.2,30.29,SSE,152,9.0,16.0,62,0.00,,,0.00,Wunderground v.1.15,2013-04-03 15:45:00,
2013-04-03 10:50:00,32.7,21.9,30.29,SSE,147,10.0,16.0,64,0.00,,,0.00,Wunderground v.1.15,2013-04-03 15:50:00,
2013-04-03 10:55:00,32.9,22.4,30.29,South,178,11.0,16.0,65,0.00,,,0.00,Wunderground v.1.15,2013-04-03 15:55:00,
2013-04-03 11:00:00,33.1,22.6,30.29,South,185,12.0,12.0,65,0.00,,,0.00,Wunderground v.1.15,2013-04-03 16:00:00,
2013-04-03 11:10:00,33.4,22.9,30.29,South,184,10.0,10.0,65,0.00,,,0.00,Wunderground v.1.15,2013-04-03 16:10:00,
2013-04-03 11:15:00,33.2,22.3,30.28,South,176,12.0,12.0,64,0.00,,,0.00,Wunderground v.1.15,2013-04-03 16:15:00,
2013-04-03 11:20:00,33.7,23.2,30.28,SSE,167,12.0,21.0,65,0.00,,,0.00,Wunderground v.1.15,2013-04-03 16:20:00,
2013-04-03 11:25:00,33.8,22.9,30.28,SSE,164,12.0,21.0,64,0.00,,,0.00,Wunderground v.1.15,2013-04-03 16:25:00,
2013-04-03 11:30:00,34.0,23.5,30.27,SSE,167,11.0,21.0,65,0.00,,,0.00,Wunderground v.1.15,2013-04-03 16:30:00,
2013-04-03 11:40:00,34.1,23.2,30.27,SSE,155,12.0,12.0,64,0.00,,,0.00,Wunderground v.1.15,2013-04-03 16:40:00,
2013-04-03 11:45:00,34.4,23.5,30.26,SSE,152,12.0,21.0,64,0.00,,,0.00,Wunderground v.1.15,2013-04-03 16:45:00,
2013-04-03 11:55:00,34.9,23.9,30.26,South,175,11.0,21.0,64,0.00,,,0.00,Wunderground v.1.15,2013-04-03 16:55:00,
2013-04-03 12:05:00,35.0,23.7,30.26,SSE,152,10.0,22.0,63,0.00,,,0.00,Wunderground v.1.15,2013-04-03 17:05:00,
2013-04-03 12:10:00,35.2,24.6,30.26,South,179,12.0,12.0,65,0.00,,,0.00,Wunderground v.1.15,2013-04-03 17:10:00,
2013-04-03 12:15:00,35.5,24.9,30.26,South,171,12.0,22.0,65,0.00,,,0.00,Wunderground v.1.15,2013-04-03 17:15:00,
2013-04-03 12:25:00,35.8,25.5,30.26,SSE,155,11.0,23.0,66,0.00,,,0.00,Wunderground v.1.15,2013-04-03 17:25:00,
2013-04-03 12:30:00,35.9,25.3,30.25,SSE,161,10.0,23.0,65,0.00,,,0.00,Wunderground v.1.15,2013-04-03 17:30:00,
2013-04-03 12:40:00,35.6,25.4,30.25,SE,134,13.0,21.0,66,0.00,,,0.00,Wunderground v.1.15,2013-04-03 17:40:00,
2013-04-03 12:45:00,35.6,25.4,30.24,SE,143,13.0,21.0,66,0.00,,,0.00,Wunderground v.1.15,2013-04-03 17:45:00,
2013-04-03 12:55:00,35.9,26.0,30.24,South,185,13.0,25.0,67,0.00,,,0.00,Wunderground v.1.15,2013-04-03 17:55:00,
2013-04-03 13:00:00,36.2,26.3,30.23,SSE,164,14.0,25.0,67,0.00,,,0.00,Wunderground v.1.15,2013-04-03 18:00:00,
2013-04-03 13:05:00,36.5,26.6,30.23,SSW,205,13.0,25.0,67,0.00,,,0.00,Wunderground v.1.15,2013-04-03 18:05:00,
2013-04-03 13:10:00,36.8,27.2,30.23,SE,140,11.0,11.0,68,0.00,,,0.00,Wunderground v.1.15,2013-04-03 18:10:00,
2013-04-03 13:15:00,36.9,27.0,30.22,South,178,10.0,18.0,67,0.00,,,0.00,Wunderground v.1.15,2013-04-03 18:15:00,
2013-04-03 13:25:00,37.0,27.4,30.22,South,186,13.0,18.0,68,0.00,,,0.00,Wunderground v.1.15,2013-04-03 18:25:00,
2013-04-03 13:35:00,37.9,27.9,30.21,South,175,10.0,23.0,67,0.00,,,0.00,Wunderground v.1.15,2013-04-03 18:35:00,
2013-04-03 13:40:00,38.0,28.0,30.21,SSE,164,10.0,23.0,67,0.00,,,0.00,Wunderground v.1.15,2013-04-03 18:40:00,
2013-04-03 13:45:00,38.2,27.8,30.21,SSE,160,11.0,23.0,66,0.00,,,0.00,Wunderground v.1.15,2013-04-03 18:45:00,
2013-04-03 13:55:00,38.8,28.8,30.21,SE,145,10.0,15.0,67,0.00,,,0.00,Wunderground v.1.15,2013-04-03 18:55:00,
2013-04-03 14:00:00,38.9,28.5,30.20,South,172,12.0,12.0,66,0.00,,,0.00,Wunderground v.1.15,2013-04-03 19:00:00,
2013-04-03 14:05:00,39.2,28.8,30.20,South,182,12.0,24.0,66,0.00,,,0.00,Wunderground v.1.15,2013-04-03 19:05:00,
2013-04-03 14:10:00,39.3,29.3,30.20,SSE,158,11.0,24.0,67,0.00,,,0.00,Wunderground v.1.15,2013-04-03 19:10:00,
2013-04-03 14:15:00,39.6,29.2,30.19,SSW,199,10.0,24.0,66,0.00,,,0.00,Wunderground v.1.15,2013-04-03 19:15:00,
2013-04-03 14:25:00,39.8,29.4,30.19,South,178,12.0,12.0,66,0.00,,,0.00,Wunderground v.1.15,2013-04-03 19:25:00,
2013-04-03 14:30:00,39.8,29.4,30.18,SSE,157,13.0,24.0,66,0.00,,,0.00,Wunderground v.1.15,2013-04-03 19:30:00,
2013-04-03 14:35:00,39.9,29.5,30.18,SSE,155,14.0,25.0,66,0.00,,,0.00,Wunderground v.1.15,2013-04-03 19:35:00,
2013-04-03 14:40:00,40.3,29.8,30.18,SSE,168,13.0,13.0,66,0.00,,,0.00,Wunderground v.1.15,2013-04-03 19:40:00,
2013-04-03 14:45:00,40.5,30.0,30.17,South,191,12.0,25.0,66,0.00,,,0.00,Wunderground v.1.15,2013-04-03 19:45:00,
2013-04-03 14:55:00,41.1,29.8,30.17,SSW,199,12.0,28.0,64,0.00,,,0.00,Wunderground v.1.15,2013-04-03 19:55:00,
2013-04-03 15:00:00,41.3,30.0,30.16,South,186,13.0,13.0,64,0.00,,,0.00,Wunderground v.1.15,2013-04-03 20:00:00,
2013-04-03 15:10:00,41.8,30.5,30.16,South,172,11.0,11.0,64,0.00,,,0.00,Wunderground v.1.15,2013-04-03 20:10:00,
2013-04-03 15:15:00,41.9,30.6,30.17,South,182,11.0,29.0,64,0.00,,,0.00,Wunderground v.1.15,2013-04-03 20:15:00,
2013-04-03 15:20:00,41.9,30.6,30.17,South,172,11.0,11.0,64,0.00,,,0.00,Wunderground v.1.15,2013-04-03 20:20:00,
2013-04-03 15:25:00,42.1,30.8,30.17,South,184,12.0,12.0,64,0.00,,,0.00,Wunderground v.1.15,2013-04-03 20:25:00,
2013-04-03 15:30:00,42.1,31.2,30.16,SSE,168,12.0,25.0,65,0.00,,,0.00,Wunderground v.1.15,2013-04-03 20:30:00,
2013-04-03 15:40:00,42.3,31.0,30.16,SSE,164,13.0,25.0,64,0.00,,,0.00,Wunderground v.1.15,2013-04-03 20:40:00,
2013-04-03 15:45:00,42.5,31.6,30.15,SSW,198,12.0,25.0,65,0.00,,,0.00,Wunderground v.1.15,2013-04-03 20:45:00,
2013-04-03 15:50:00,42.8,31.5,30.15,SSE,160,13.0,25.0,64,0.00,,,0.00,Wunderground v.1.15,2013-04-03 20:50:00,
2013-04-03 15:55:00,42.9,31.9,30.15,South,175,12.0,25.0,65,0.00,,,0.00,Wunderground v.1.15,2013-04-03 20:55:00,
2013-04-03 16:00:00,43.1,32.1,30.13,SSE,168,12.0,25.0,65,0.00,,,0.00,Wunderground v.1.15,2013-04-03 21:00:00,
2013-04-03 16:10:00,43.2,32.2,30.13,South,188,13.0,13.0,65,0.00,,,0.00,Wunderground v.1.15,2013-04-03 21:10:00,
2013-04-03 16:15:00,43.2,32.6,30.12,SE,144,12.0,16.0,66,0.00,,,0.00,Wunderground v.1.15,2013-04-03 21:15:00,
2013-04-03 16:20:00,43.3,32.7,30.12,South,179,11.0,30.0,66,0.00,,,0.00,Wunderground v.1.15,2013-04-03 21:20:00,
2013-04-03 16:25:00,43.6,33.0,30.12,SSE,147,11.0,30.0,66,0.00,,,0.00,Wunderground v.1.15,2013-04-03 21:25:00,
2013-04-03 16:30:00,43.8,33.2,30.11,SSE,164,11.0,30.0,66,0.00,,,0.00,Wunderground v.1.15,2013-04-03 21:30:00,
2013-04-03 16:35:00,43.9,33.3,30.11,South,188,11.0,30.0,66,0.00,,,0.00,Wunderground v.1.15,2013-04-03 21:35:00,
2013-04-03 16:40:00,44.1,33.5,30.11,South,175,12.0,22.0,66,0.00,,,0.00,Wunderground v.1.15,2013-04-03 21:40:00,
2013-04-03 16:45:00,44.2,33.6,30.11,South,169,12.0,22.0,66,0.00,,,0.00,Wunderground v.1.15,2013-04-03 21:45:00,
2013-04-03 16:55:00,44.6,33.9,30.11,South,176,11.0,22.0,66,0.00,,,0.00,Wunderground v.1.15,2013-04-03 21:55:00,
2013-04-03 17:05:00,44.9,34.2,30.09,South,172,12.0,13.0,66,0.00,,,0.00,Wunderground v.1.15,2013-04-03 22:05:00,
2013-04-03 17:10:00,45.1,34.0,30.09,South,174,11.0,11.0,65,0.00,,,0.00,Wunderground v.1.15,2013-04-03 22:10:00,
2013-04-03 17:15:00,45.2,34.1,30.08,SSE,157,11.0,14.0,65,0.00,,,0.00,Wunderground v.1.15,2013-04-03 22:15:00,
2013-04-03 17:20:00,45.2,34.5,30.08,South,178,11.0,24.0,66,0.00,,,0.00,Wunderground v.1.15,2013-04-03 22:20:00,
2013-04-03 17:25:00,45.2,34.5,30.08,South,185,10.0,24.0,66,0.00,,,0.00,Wunderground v.1.15,2013-04-03 22:25:00,
2013-04-03 17:30:00,45.4,34.7,30.07,SSW,192,11.0,11.0,66,0.00,,,0.00,Wunderground v.1.15,2013-04-03 22:30:00,
2013-04-03 17:35:00,45.5,34.8,30.07,SSE,165,10.0,20.0,66,0.00,,,0.00,Wunderground v.1.15,2013-04-03 22:35:00,
2013-04-03 17:45:00,45.4,35.1,30.07,South,185,10.0,23.0,67,0.00,,,0.00,Wunderground v.1.15,2013-04-03 22:45:00,
2013-04-03 17:50:00,45.4,35.1,30.07,SSE,168,9.0,20.0,67,0.00,,,0.00,Wunderground v.1.15,2013-04-03 22:50:00,
2013-04-03 17:55:00,45.2,35.3,30.07,SSE,160,9.0,20.0,68,0.00,,,0.00,Wunderground v.1.15,2013-04-03 22:55:00,
2013-04-03 18:00:00,45.1,35.5,30.06,SSE,151,11.0,20.0,69,0.00,,,0.00,Wunderground v.1.15,2013-04-03 23:00:00,
2013-04-03 18:10:00,45.2,35.6,30.06,SSE,154,11.0,11.0,69,0.00,,,0.00,Wunderground v.1.15,2013-04-03 23:10:00,
2013-04-03 18:15:00,45.2,35.6,30.05,SSE,165,10.0,17.0,69,0.00,,,0.00,Wunderground v.1.15,2013-04-03 23:15:00,
2013-04-03 18:20:00,45.2,35.6,30.05,SSE,164,10.0,10.0,69,0.00,,,0.00,Wunderground v.1.15,2013-04-03 23:20:00,
2013-04-03 18:30:00,45.1,35.9,30.04,SSE,157,9.0,18.0,70,0.00,,,0.00,Wunderground v.1.15,2013-04-03 23:30:00,
2013-04-03 18:35:00,45.2,36.0,30.04,South,171,9.0,20.0,70,0.00,,,0.00,Wunderground v.1.15,2013-04-03 23:35:00,
2013-04-03 18:40:00,45.1,35.9,30.04,SSE,167,10.0,10.0,70,0.00,,,0.00,Wunderground v.1.15,2013-04-03 23:40:00,
2013-04-03 18:45:00,45.1,35.9,30.03,South,172,10.0,20.0,70,0.00,,,0.00,Wunderground v.1.15,2013-04-03 23:45:00,
2013-04-03 18:55:00,44.8,36.0,30.03,SSE,167,11.0,13.0,71,0.00,,,0.00,Wunderground v.1.15,2013-04-03 23:55:00,
2013-04-03 19:00:00,44.8,36.3,30.02,SSE,167,11.0,21.0,72,0.00,,,0.00,Wunderground v.1.15,2013-04-04 00:00:00,
2013-04-03 19:05:00,44.6,36.1,30.02,South,175,12.0,23.0,72,0.00,,,0.00,Wunderground v.1.15,2013-04-04 00:05:00,
2013-04-03 19:10:00,44.6,36.1,30.02,SSE,168,12.0,23.0,72,0.00,,,0.00,Wunderground v.1.15,2013-04-04 00:10:00,
2013-04-03 19:15:00,44.5,36.0,30.01,SSE,168,11.0,23.0,72,0.00,,,0.00,Wunderground v.1.15,2013-04-04 00:15:00,
2013-04-03 19:20:00,44.3,35.8,30.01,SSE,157,10.0,24.0,72,0.00,,,0.00,Wunderground v.1.15,2013-04-04 00:20:00,
2013-04-03 19:25:00,44.3,36.2,30.01,SSE,164,10.0,24.0,73,0.00,,,0.00,Wunderground v.1.15,2013-04-04 00:25:00,
2013-04-03 19:30:00,44.3,35.8,30.02,SSE,151,11.0,24.0,72,0.00,,,0.00,Wunderground v.1.15,2013-04-04 00:30:00,
2013-04-03 19:35:00,44.2,35.7,30.02,SSE,162,10.0,24.0,72,0.00,,,0.00,Wunderground v.1.15,2013-04-04 00:35:00,
2013-04-03 19:40:00,44.1,35.6,30.02,SSE,158,10.0,10.0,72,0.00,,,0.00,Wunderground v.1.15,2013-04-04 00:40:00,
2013-04-03 19:50:00,44.1,35.6,30.01,South,169,9.0,17.0,72,0.00,,,0.00,Wunderground v.1.15,2013-04-04 00:50:00,
2013-04-03 19:55:00,43.9,35.5,30.01,SSE,161,9.0,17.0,72,0.00,,,0.00,Wunderground v.1.15,2013-04-04 00:55:00,
2013-04-03 20:00:00,43.8,35.4,30.01,South,171,10.0,10.0,72,0.00,,,0.00,Wunderground v.1.15,2013-04-04 01:00:00,
2013-04-03 20:05:00,43.6,35.2,30.01,SSE,165,9.0,15.0,72,0.00,,,0.00,Wunderground v.1.15,2013-04-04 01:05:00,
2013-04-03 20:10:00,43.6,35.2,30.01,SSE,147,9.0,17.0,72,0.00,,,0.00,Wunderground v.1.15,2013-04-04 01:10:00,
2013-04-03 20:15:00,43.5,35.1,29.99,SSE,152,10.0,17.0,72,0.00,,,0.00,Wunderground v.1.15,2013-04-04 01:15:00,
2013-04-03 20:25:00,43.5,35.1,29.99,South,171,9.0,18.0,72,0.00,,,0.00,Wunderground v.1.15,2013-04-04 01:25:00,
2013-04-03 20:35:00,43.8,34.6,29.99,South,172,9.0,9.0,70,0.00,,,0.00,Wunderground v.1.15,2013-04-04 01:35:00,
2013-04-03 20:45:00,44.1,34.6,29.98,South,172,8.0,21.0,69,0.00,,,0.00,Wunderground v.1.15,2013-04-04 01:45:00,
2013-04-03 20:50:00,44.2,34.3,29.98,South,179,9.0,9.0,68,0.00,,,0.00,Wunderground v.1.15,2013-04-04 01:50:00,
2013-04-03 20:55:00,44.2,34.3,29.98,SSE,165,9.0,15.0,68,0.00,,,0.00,Wunderground v.1.15,2013-04-04 01:55:00,
2013-04-03 21:00:00,44.2,33.9,29.98,South,172,9.0,9.0,67,0.00,,,0.00,Wunderground v.1.15,2013-04-04 02:00:00,
2013-04-03 21:10:00,44.2,33.9,29.98,South,184,9.0,9.0,67,0.00,,,0.00,Wunderground v.1.15,2013-04-04 02:10:00,
2013-04-03 21:20:00,43.9,34.0,29.98,South,178,8.0,8.0,68,0.00,,,0.00,Wunderground v.1.15,2013-04-04 02:20:00,
2013-04-03 21:25:00,43.8,33.9,29.98,SSW,212,8.0,21.0,68,0.00,,,0.00,Wunderground v.1.15,2013-04-04 02:25:00,
2013-04-03 21:30:00,43.9,33.6,29.98,SSW,195,8.0,8.0,67,0.00,,,0.00,Wunderground v.1.15,2013-04-04 02:30:00,
2013-04-03 21:35:00,43.6,33.7,29.98,South,179,7.0,22.0,68,0.00,,,0.00,Wunderground v.1.15,2013-04-04 02:35:00,
2013-04-03 21:40:00,43.5,33.6,29.98,SSW,210,7.0,22.0,68,0.00,,,0.00,Wunderground v.1.15,2013-04-04 02:40:00,
2013-04-03 21:45:00,43.3,33.4,29.98,SSW,209,7.0,22.0,68,0.00,,,0.00,Wunderground v.1.15,2013-04-04 02:45:00,
2013-04-03 21:55:00,42.9,33.4,29.98,South,186,8.0,24.0,69,0.00,,,0.00,Wunderground v.1.15,2013-04-04 02:55:00,
2013-04-03 22:00:00,42.9,33.4,29.98,SSW,209,8.0,24.0,69,0.00,,,0.00,Wunderground v.1.15,2013-04-04 03:00:00,
2013-04-03 22:10:00,42.8,33.3,29.98,SSW,196,7.0,20.0,69,0.00,,,0.00,Wunderground v.1.15,2013-04-04 03:10:00,
2013-04-03 22:15:00,42.8,33.0,29.97,South,189,7.0,20.0,68,0.00,,,0.00,Wunderground v.1.15,2013-04-04 03:15:00,
2013-04-03 22:20:00,42.8,33.0,29.97,South,191,6.0,20.0,68,0.00,,,0.00,Wunderground v.1.15,2013-04-04 03:20:00,
2013-04-03 22:25:00,42.8,33.0,29.97,South,184,7.0,20.0,68,0.00,,,0.00,Wunderground v.1.15,2013-04-04 03:25:00,
2013-04-03 22:30:00,42.8,33.0,29.97,SSW,210,7.0,20.0,68,0.00,,,0.00,Wunderground v.1.15,2013-04-04 03:30:00,
2013-04-03 22:40:00,42.6,32.4,29.97,South,174,7.0,20.0,67,0.00,,,0.00,Wunderground v.1.15,2013-04-04 03:40:00,
2013-04-03 22:45:00,42.5,32.7,29.97,South,179,6.0,20.0,68,0.00,,,0.00,Wunderground v.1.15,2013-04-04 03:45:00,
2013-04-03 22:55:00,42.3,32.1,29.97,South,189,7.0,16.0,67,0.00,,,0.00,Wunderground v.1.15,2013-04-04 03:55:00,
2013-04-03 23:00:00,42.6,32.4,29.96,SSW,208,7.0,7.0,67,0.00,,,0.00,Wunderground v.1.15,2013-04-04 04:00:00,
2013-04-03 23:05:00,42.6,32.0,29.96,South,172,7.0,9.0,66,0.00,,,0.00,Wunderground v.1.15,2013-04-04 04:05:00,
2013-04-03 23:10:00,42.8,32.2,29.96,SSW,203,7.0,20.0,66,0.00,,,0.00,Wunderground v.1.15,2013-04-04 04:10:00,
2013-04-03 23:15:00,42.8,32.2,29.96,SSW,200,6.0,20.0,66,0.00,,,0.00,Wunderground v.1.15,2013-04-04 04:15:00,
2013-04-03 23:20:00,43.1,32.1,29.96,South,184,6.0,13.0,65,0.00,,,0.00,Wunderground v.1.15,2013-04-04 04:20:00,
2013-04-03 23:25:00,43.2,31.8,29.96,South,188,7.0,13.0,64,0.00,,,0.00,Wunderground v.1.15,2013-04-04 04:25:00,
2013-04-03 23:30:00,43.2,31.8,29.95,SSW,206,7.0,7.0,64,0.00,,,0.00,Wunderground v.1.15,2013-04-04 04:30:00,
2013-04-03 23:35:00,43.3,31.9,29.95,South,182,7.0,16.0,64,0.00,,,0.00,Wunderground v.1.15,2013-04-04 04:35:00,
2013-04-03 23:40:00,43.2,32.2,29.95,WSW,246,7.0,7.0,65,0.00,,,0.00,Wunderground v.1.15,2013-04-04 04:40:00,
2013-04-03 23:50:00,43.2,31.8,29.96,SSE,167,7.0,7.0,64,0.00,,,0.00,Wunderground v.1.15,2013-04-04 04:50:00,
2013-04-03 23:55:00,43.1,31.7,29.96,SW,215,8.0,13.0,64,0.00,,,0.00,Wunderground v.1.15,2013-04-04 04:55:00,